Ashland, WI

10:19 AM CDT on April 23, 2017 (GMT -0500)
Kennedy Memorial

Weather History for KASX - April, 2013

Change the Weather History Date:

Friday, April 19, 2013

  Actual Average Record
Temperature  
Mean Temperature 26 °F -  
Max Temperature 30 °F 54 °F 86 °F (1987)
Min Temperature 18 °F 32 °F 15 °F (1974)
Degree Days  
Heating Degree Days 40    
Moisture  
Dew Point 22 °F    
Average Humidity 81    
Maximum Humidity 93    
Minimum Humidity 66    
Precipitation  
Precipitation 0.13 in - - ()
Sea Level Pressure  
Sea Level Pressure 29.59 in    
Wind  
Wind Speed 19 mph (North)    
Max Wind Speed 26 mph    
Max Gust Speed 33 mph    
Visibility 2 miles    
Events Fog , Snow    
Averages and records for this station are not official NWS values.
T = Trace of Precipitation, MM = Missing Value Source: NWS Daily Summary

Daily Weather History Graph

Daily Weather History Graph

Search for Another Location

Airport or City:

Trip Planner

Search our weather history database for the weather conditions in past years. The results will help you decide how hot, cold, wet, or windy it might be!

Date:

Astronomy

Apr. 19, 2013 Rise Set
Actual Time 6:08 AM CDT 7:57 PM CDT
Civil Twilight 5:36 AM CDT 8:29 PM CDT
Nautical Twilight 4:57 AM CDT 9:09 PM CDT
Astronomical Twilight 4:14 AM CDT 9:52 PM CDT
Moon 1:20 PM CDT (4/19) 2:47 AM CDT (4/19)
Length of Visible Light 14h 52m
Length of Day
13h 48m
First Quarter, 62% of the Moon is Illuminated
Apr 19
First Quarter
Apr 25
Full
May 2
Last Quarter
May 9
New
May 17
First Quarter

Hourly Weather History & Observations

Time (CDT) Temp. Windchill Dew Point Humidity Pressure Visibility Wind Dir Wind Speed Gust Speed Precip Events Conditions
12:53 AM 30.9 °F 18.1 °F 28.9 °F 92% 29.42 in 0.8 mi NNE 21.9 mph 29.9 mph 0.03 in Snow Light Snow
1:53 AM 30.9 °F 18.4 °F 28.9 °F 92% 29.40 in 0.8 mi NNE 20.7 mph 28.8 mph 0.04 in Snow Light Snow
2:50 AM 30.2 °F 15.9 °F 28.4 °F 93% 29.37 in 0.5 mi NNE 26.5 mph 33.4 mph 0.03 in Fog , Snow Snow
2:53 AM 30.0 °F 17.2 °F 28.0 °F 92% 29.40 in 0.5 mi NNE 20.7 mph 33.4 mph 0.03 in Fog , Snow Snow
3:03 AM 30.2 °F 17.1 °F 28.4 °F 93% 29.37 in 0.5 mi NNE 21.9 mph 27.6 mph 0.00 in Fog , Snow Snow
3:53 AM 28.9 °F 15.4 °F 27.0 °F 92% 29.40 in 0.5 mi NNE 21.9 mph 28.8 mph 0.02 in Fog , Snow Snow
4:53 AM 28.9 °F 16.9 °F 27.0 °F 92% 29.41 in 1.0 mi North 17.3 mph 26.5 mph 0.00 in   Mist
5:40 AM 28.4 °F 14.7 °F 24.8 °F 86% 29.37 in 1.2 mi North 21.9 mph 31.1 mph N/A   Overcast
5:53 AM 28.0 °F 14.3 °F 25.0 °F 88% 29.41 in 1.2 mi North 21.9 mph 29.9 mph N/A   Overcast
6:28 AM 26.6 °F 13.4 °F 24.8 °F 93% 29.39 in 0.8 mi North 18.4 mph 29.9 mph N/A   Overcast
6:43 AM 26.6 °F 13.1 °F 24.8 °F 93% 29.39 in 0.8 mi North 19.6 mph 28.8 mph N/A   Overcast
6:53 AM 27.0 °F 12.8 °F 25.0 °F 92% 29.43 in 0.8 mi North 21.9 mph 27.6 mph N/A   Overcast
6:57 AM 26.6 °F 12.4 °F 24.8 °F 93% 29.40 in 0.8 mi North 21.9 mph 27.6 mph N/A   Overcast
7:04 AM 26.6 °F 13.4 °F 24.8 °F 93% 29.40 in 1.0 mi North 18.4 mph - N/A   Overcast
7:18 AM 26.6 °F 12.4 °F 24.8 °F 93% 29.40 in 0.8 mi North 21.9 mph 31.1 mph N/A   Overcast
7:46 AM 26.6 °F 12.7 °F 23.0 °F 86% 29.41 in 1.0 mi North 20.7 mph 28.8 mph N/A   Overcast
7:53 AM 27.0 °F 13.9 °F 23.0 °F 85% 29.44 in 1.0 mi North 18.4 mph 28.8 mph N/A   Overcast
8:40 AM 26.6 °F 14.3 °F 21.2 °F 80% 29.42 in 0.8 mi North 16.1 mph 26.5 mph N/A   Overcast
8:53 AM 26.1 °F 14.0 °F 23.0 °F 88% 29.46 in 0.8 mi North 15.0 mph 25.3 mph N/A   Overcast
9:00 AM 26.6 °F 13.8 °F 23.0 °F 86% 29.43 in 0.8 mi North 17.3 mph 24.2 mph N/A   Overcast
9:17 AM 26.6 °F 15.2 °F 23.0 °F 86% 29.43 in 0.8 mi North 13.8 mph 23.0 mph N/A   Overcast
9:51 AM 26.6 °F 14.7 °F 23.0 °F 86% 29.44 in 0.8 mi North 15.0 mph 24.2 mph N/A   Overcast
9:53 AM 27.0 °F 15.2 °F 23.0 °F 85% 29.48 in 0.8 mi North 15.0 mph 24.2 mph N/A   Overcast
9:58 AM 26.6 °F 13.8 °F 23.0 °F 86% 29.44 in 1.0 mi North 17.3 mph 24.2 mph N/A   Overcast
10:02 AM 26.6 °F 14.3 °F 23.0 °F 86% 29.45 in 1.0 mi North 16.1 mph 23.0 mph N/A   Overcast
10:14 AM 26.6 °F 14.3 °F 23.0 °F 86% 29.45 in 1.2 mi North 16.1 mph - N/A   Overcast
10:26 AM 26.6 °F 14.3 °F 23.0 °F 86% 29.46 in 1.0 mi North 16.1 mph - N/A   Overcast
10:53 AM 27.0 °F 14.3 °F 23.0 °F 85% 29.50 in 0.8 mi North 17.3 mph 24.2 mph N/A   Overcast
11:16 AM 26.6 °F 13.8 °F 23.0 °F 86% 29.48 in 1.0 mi North 17.3 mph 27.6 mph N/A   Overcast
11:53 AM 27.0 °F 12.8 °F 21.9 °F 81% 29.53 in 1.0 mi North 21.9 mph 28.8 mph N/A   Haze
12:03 PM 28.4 °F 16.6 °F 21.2 °F 74% 29.50 in 3.0 mi North 16.1 mph 28.8 mph N/A   Haze
12:11 PM 28.4 °F 14.4 °F 21.2 °F 74% 29.51 in 1.8 mi North 23.0 mph 29.9 mph N/A   Haze
12:26 PM 28.4 °F 16.6 °F 21.2 °F 74% 29.51 in 2.5 mi NNW 16.1 mph 26.5 mph N/A   Haze
12:35 PM 26.6 °F 12.4 °F 21.2 °F 80% 29.52 in 1.0 mi NNW 21.9 mph 31.1 mph N/A   Haze
12:45 PM 28.4 °F 15.8 °F 21.2 °F 74% 29.53 in 3.0 mi North 18.4 mph 26.5 mph N/A   Haze
12:53 PM 28.0 °F 14.9 °F 21.0 °F 75% 29.57 in 5.0 mi North 19.6 mph 27.6 mph N/A   Haze
1:08 PM 28.4 °F 16.2 °F 21.2 °F 74% 29.54 in 3.0 mi North 17.3 mph 24.2 mph N/A   Haze
1:15 PM 28.4 °F 14.7 °F 21.2 °F 74% 29.54 in 2.5 mi North 21.9 mph 27.6 mph N/A   Haze
1:24 PM 26.6 °F 13.1 °F 21.2 °F 80% 29.55 in 0.8 mi North 19.6 mph 31.1 mph N/A   Haze
1:34 PM 26.6 °F 14.7 °F 23.0 °F 86% 29.55 in 0.5 mi North 15.0 mph - N/A Fog Light Freezing Fog
1:49 PM 28.4 °F 16.2 °F 23.0 °F 80% 29.56 in 1.0 mi North 17.3 mph 25.3 mph 0.01 in   Haze
1:50 PM 28.0 °F 14.9 °F 23.0 °F 81% 29.60 in 1.0 mi North 19.6 mph 26.5 mph 0.01 in   Haze
1:55 PM 28.4 °F 16.6 °F 21.2 °F 74% 29.56 in 3.0 mi North 16.1 mph 26.5 mph N/A   Haze
2:00 PM 26.6 °F 14.3 °F 21.2 °F 80% 29.57 in 2.5 mi North 16.1 mph - N/A   Haze
2:05 PM 26.6 °F 13.8 °F 21.2 °F 80% 29.57 in 0.8 mi North 17.3 mph - N/A   Haze
2:22 PM 28.4 °F 16.6 °F 21.2 °F 74% 29.58 in 1.8 mi North 16.1 mph - N/A   Haze
2:26 PM 28.4 °F 16.2 °F 21.2 °F 74% 29.58 in 3.0 mi North 17.3 mph 24.2 mph N/A   Haze
2:31 PM 26.6 °F 14.3 °F 21.2 °F 80% 29.59 in 1.8 mi North 16.1 mph 24.2 mph N/A   Haze
2:37 PM 26.6 °F 13.8 °F 23.0 °F 86% 29.60 in 0.5 mi North 17.3 mph 24.2 mph N/A Fog Light Freezing Fog
2:51 PM 28.4 °F 16.6 °F 23.0 °F 80% 29.61 in 1.0 mi North 16.1 mph - N/A   Haze
2:53 PM 28.0 °F 16.1 °F 23.0 °F 81% 29.64 in 1.2 mi NNW 16.1 mph - N/A   Haze
3:03 PM 26.6 °F 13.8 °F 23.0 °F 86% 29.61 in 0.5 mi NNW 17.3 mph 25.3 mph N/A Fog Light Freezing Fog
3:12 PM 28.4 °F 16.2 °F 23.0 °F 80% 29.62 in 1.0 mi North 17.3 mph 27.6 mph N/A   Haze
3:26 PM 28.4 °F 17.5 °F 23.0 °F 80% 29.63 in 0.8 mi North 13.8 mph 21.9 mph N/A   Haze
3:41 PM 28.4 °F 16.6 °F 21.2 °F 74% 29.64 in 1.8 mi NNW 16.1 mph 25.3 mph N/A   Haze
3:53 PM 28.9 °F 16.9 °F 23.0 °F 78% 29.69 in 1.5 mi North 17.3 mph 21.9 mph N/A   Haze
4:07 PM 28.4 °F 17.0 °F 21.2 °F 74% 29.66 in 0.8 mi North 15.0 mph 29.9 mph 0.00 in Snow Light Snow
4:14 PM 28.4 °F 15.4 °F 21.2 °F 74% 29.67 in 2.0 mi North 19.6 mph - 0.00 in   Haze
4:20 PM 26.6 °F 12.4 °F 21.2 °F 80% 29.67 in 0.8 mi North 21.9 mph 27.6 mph 0.00 in Snow Light Snow
4:29 PM 28.4 °F 17.0 °F 21.2 °F 74% 29.68 in 1.8 mi North 15.0 mph 26.5 mph 0.00 in Snow Light Snow
4:31 PM 28.4 °F 17.0 °F 21.2 °F 74% 29.68 in 3.0 mi North 15.0 mph 26.5 mph 0.00 in   Haze
4:42 PM 28.4 °F 15.1 °F 21.2 °F 74% 29.69 in 2.0 mi North 20.7 mph 27.6 mph 0.00 in   Haze
4:46 PM 26.6 °F 12.0 °F 21.2 °F 80% 29.70 in 0.8 mi NNW 23.0 mph 31.1 mph 0.00 in Snow Light Snow
4:53 PM 28.0 °F 15.7 °F 21.9 °F 78% 29.74 in 0.8 mi NNW 17.3 mph 31.1 mph 0.00 in Snow Light Snow
5:06 PM 28.4 °F 15.4 °F 21.2 °F 74% 29.71 in 2.0 mi North 19.6 mph 27.6 mph 0.00 in Snow Light Snow
5:11 PM 28.4 °F 17.0 °F 19.4 °F 69% 29.71 in 5.0 mi North 15.0 mph 28.8 mph 0.00 in   Haze
5:32 PM 28.4 °F 15.8 °F 19.4 °F 69% 29.74 in 1.8 mi NNW 18.4 mph 33.4 mph 0.00 in   Haze
5:39 PM 28.4 °F 17.5 °F 19.4 °F 69% 29.74 in 4.0 mi North 13.8 mph 28.8 mph 0.00 in   Haze
5:53 PM 28.0 °F 16.1 °F 19.0 °F 69% 29.79 in 7.0 mi North 16.1 mph 26.5 mph 0.00 in   Overcast
6:02 PM 26.6 °F 15.2 °F 19.4 °F 74% 29.77 in 2.0 mi North 13.8 mph 28.8 mph 0.00 in Snow Light Snow
6:09 PM 26.6 °F 14.7 °F 21.2 °F 80% 29.77 in 1.8 mi NNW 15.0 mph 21.9 mph 0.00 in Snow Light Snow
6:11 PM 28.4 °F 18.0 °F 21.2 °F 74% 29.77 in 2.0 mi North 12.7 mph 21.9 mph 0.00 in Snow Light Snow
6:19 PM 28.4 °F 17.5 °F 19.4 °F 69% 29.78 in 9.0 mi North 13.8 mph 20.7 mph 0.00 in   Overcast
6:26 PM 26.6 °F 14.3 °F 19.4 °F 74% 29.78 in 2.5 mi North 16.1 mph - 0.00 in Snow Light Snow
6:35 PM 26.6 °F 13.8 °F 21.2 °F 80% 29.79 in 0.8 mi NNW 17.3 mph 24.2 mph 0.00 in Snow Light Snow
6:48 PM 26.6 °F 14.7 °F 21.2 °F 80% 29.80 in 2.5 mi North 15.0 mph 21.9 mph 0.00 in Snow Light Snow
6:53 PM 27.0 °F 13.5 °F 19.9 °F 75% 29.84 in 3.0 mi North 19.6 mph 27.6 mph 0.00 in Snow Light Snow
7:04 PM 28.4 °F 18.0 °F 19.4 °F 69% 29.81 in 6.0 mi NNW 12.7 mph 27.6 mph 0.00 in   Haze
7:53 PM 27.0 °F 14.3 °F 18.0 °F 69% 29.88 in 10.0 mi North 17.3 mph 23.0 mph 0.00 in   Overcast
8:53 PM 27.0 °F 13.9 °F 18.0 °F 69% 29.91 in 8.0 mi North 18.4 mph 25.3 mph N/A   Overcast
9:53 PM 26.1 °F 19.4 °F 16.0 °F 66% 29.94 in 10.0 mi North 5.8 mph - N/A   Overcast
10:53 PM 21.9 °F 15.7 °F 15.1 °F 75% 29.95 in 10.0 mi NW 4.6 mph - N/A   Mostly Cloudy
11:53 PM 18.0 °F 11.1 °F 14.0 °F 84% 29.98 in 10.0 mi West 4.6 mph - N/A   Partly Cloudy